Weather History for Kaneohe MCBH, HI

Change the Weather History Date:

Monday, December 12, 2011

  Actual Average Record
Temperature  
Mean Temperature 74 °F -  
Max Temperature 78 °F 76 °F 82 °F (2008)
Min Temperature 71 °F 68 °F 64 °F (1996)
Cooling Degree Days 10    
Growing Degree Days 24 (Base 50)    
Moisture  
Dew Point 70 °F    
Average Humidity 89    
Maximum Humidity 100    
Minimum Humidity 76    
Precipitation  
Precipitation 0.26 in - - ()
Sea Level Pressure  
Sea Level Pressure 30.02 in    
Wind  
Wind Speed 10 mph (ENE)    
Max Wind Speed 18 mph    
Max Gust Speed 23 mph    
Visibility 10 miles    
Events Rain    
Averages and records for this station are not official NWS values.
T = Trace of Precipitation, MM = Missing Value Source: NWS Daily Summary

Daily Weather History Graph

Daily Weather History Graph

Search for Another Location

Airport:

Trip Planner

Search our weather history database for the weather conditions in past years. The results will help you decide how hot, cold, wet, or windy it might be!

Date:

Astronomy

Dec. 12, 2011 Rise Set
Actual Time 6:59 AM HST 5:50 PM HST
Civil Twilight 6:35 AM HST 6:14 PM HST
Nautical Twilight 6:07 AM HST 6:42 PM HST
Astronomical Twilight 5:40 AM HST 7:09 PM HST
Moon 8:05 PM HST (12/12) 8:44 AM HST (12/12)
Length of Visible Light 11h 39m
Length of Day
10h 50m
Waning Gibbous, 95% of the Moon is Illuminated
Dec 12
Waning Gibbous
Dec 17
Last Quarter
Dec 24
New
Dec 31
First Quarter
Jan 8
Full

Hourly Weather History & Observations

Time (HST) Temp. Dew Point Humidity Pressure Visibility Wind Dir Wind Speed Gust Speed Precip Events Conditions
12:07 AM 71.6 °F 69.8 °F 94% 30.07 in 10.0 mi ENE 9.2 mph - 0.00 in   Overcast
12:24 AM 73.4 °F 71.6 °F 94% 30.07 in 10.0 mi NE 15.0 mph 23.0 mph 0.01 in Rain Rain
12:53 AM 71.6 °F 71.6 °F 100% 30.07 in 10.0 mi NNE 15.0 mph 21.9 mph 0.02 in   Mostly Cloudy
12:57 AM 71.6 °F 69.8 °F 94% 30.06 in 10.0 mi NNE 18.4 mph 21.9 mph 0.03 in Rain Light Rain
1:06 AM 71.6 °F 69.8 °F 94% 30.07 in 10.0 mi NNE 12.7 mph 21.9 mph 0.06 in Rain Heavy Rain
1:16 AM 71.6 °F 71.6 °F 100% 30.07 in 10.0 mi NE 11.5 mph 17.3 mph 0.06 in Rain Light Rain
1:52 AM 72.0 °F 70.0 °F 93% 30.05 in 10.0 mi NE 10.4 mph 17.3 mph 0.06 in   Overcast
2:12 AM - - N/A% - - North - - N/A   Unknown
2:27 AM 73.4 °F 69.8 °F 88% 30.05 in 10.0 mi ENE 11.5 mph 17.3 mph 0.01 in Rain Light Rain
2:49 AM 71.6 °F 69.8 °F 94% 30.04 in 10.0 mi NE 12.7 mph 18.4 mph 0.04 in Rain Light Rain
2:57 AM 73.0 °F 71.1 °F 93% 30.02 in 10.0 mi NE 11.5 mph - 0.04 in Rain Light Rain
3:14 AM 73.4 °F 69.8 °F 88% 30.03 in 10.0 mi ENE 11.5 mph 19.6 mph 0.00 in   Mostly Cloudy
3:32 AM 73.4 °F 69.8 °F 88% 30.03 in 6.2 mi NE 10.4 mph - 0.00 in   Mostly Cloudy
3:57 AM 73.0 °F 70.0 °F 90% 30.01 in 10.0 mi NE 13.8 mph 19.6 mph 0.01 in Rain Light Rain
4:47 AM 71.6 °F 69.8 °F 94% 30.01 in 10.0 mi ENE 13.8 mph 21.9 mph 0.02 in   Mostly Cloudy
4:57 AM 73.0 °F 70.0 °F 90% 29.99 in 10.0 mi ENE 11.5 mph 19.6 mph 0.02 in   Mostly Cloudy
5:45 AM 73.4 °F 69.8 °F 88% 30.01 in 6.2 mi NE 10.4 mph 18.4 mph N/A   Mostly Cloudy
5:52 AM 73.4 °F 69.8 °F 88% 30.01 in 10.0 mi ENE 9.2 mph - N/A   Scattered Clouds
5:57 AM 73.0 °F 70.0 °F 90% 30.00 in 10.0 mi ENE 8.1 mph - N/A   Scattered Clouds
6:24 AM 73.4 °F 69.8 °F 88% 30.02 in 10.0 mi ENE 8.1 mph 16.1 mph 0.00 in Rain Light Rain
6:31 AM 73.4 °F 69.8 °F 88% 30.02 in 10.0 mi ENE 9.2 mph - 0.00 in   Mostly Cloudy
6:57 AM 73.9 °F 69.1 °F 85% 30.02 in 10.0 mi East 9.2 mph 21.9 mph 0.00 in   Overcast
7:09 AM 73.4 °F 68.0 °F 83% 30.03 in 10.0 mi East 15.0 mph 21.9 mph N/A   Overcast
7:33 AM 75.2 °F 69.8 °F 83% 30.04 in 6.2 mi ENE 9.2 mph 20.7 mph N/A   Overcast
7:57 AM 73.4 °F 68.0 °F 83% 30.03 in 10.0 mi East 12.7 mph 20.7 mph 0.01 in Rain Light Rain
8:10 AM 75.2 °F 69.8 °F 83% 30.05 in 10.0 mi East 9.2 mph 19.6 mph 0.00 in   Mostly Cloudy
8:20 AM 75.2 °F 69.8 °F 83% 30.05 in 10.0 mi East 10.4 mph - 0.00 in   Mostly Cloudy
8:57 AM 75.0 °F 70.0 °F 84% 30.05 in 10.0 mi ENE 10.4 mph 19.6 mph 0.00 in   Scattered Clouds
9:57 AM 77.0 °F 70.0 °F 79% 30.06 in 10.0 mi East 9.2 mph 23.0 mph N/A   Scattered Clouds
10:06 AM 75.2 °F 69.8 °F 83% 30.07 in 10.0 mi East 11.5 mph - N/A   Mostly Cloudy
10:57 AM 78.1 °F 70.0 °F 76% 30.04 in 10.0 mi ENE 10.4 mph 18.4 mph N/A   Mostly Cloudy
11:50 AM - - N/A% - - North - - N/A   Unknown
11:57 AM 77.0 °F 71.1 °F 82% 30.03 in 10.0 mi ENE 9.2 mph 16.1 mph N/A   Mostly Cloudy
12:36 PM 77.0 °F 71.6 °F 83% 30.02 in 10.0 mi ENE 8.1 mph 16.1 mph N/A   Scattered Clouds
12:49 PM 77.0 °F 71.6 °F 83% 30.02 in 10.0 mi ENE 8.1 mph - N/A   Mostly Cloudy
12:57 PM 77.0 °F 71.1 °F 82% 30.00 in 10.0 mi ENE 10.4 mph 16.1 mph N/A   Mostly Cloudy
1:57 PM 75.0 °F 71.1 °F 87% 29.98 in 10.0 mi ENE 8.1 mph - 0.02 in   Mostly Cloudy
2:57 PM 75.0 °F 71.1 °F 87% 29.97 in 10.0 mi ENE 8.1 mph - 0.00 in   Mostly Cloudy
3:06 PM 75.2 °F 71.6 °F 89% 29.98 in 10.0 mi ENE 8.1 mph - N/A   Scattered Clouds
3:57 PM 75.0 °F 71.1 °F 87% 29.97 in 10.0 mi ENE 6.9 mph - N/A   Scattered Clouds
4:09 PM 75.2 °F 71.6 °F 89% 29.98 in 10.0 mi NE 9.2 mph - N/A   Mostly Cloudy
4:21 PM 75.2 °F 69.8 °F 83% 29.99 in 10.0 mi NE 9.2 mph - N/A   Mostly Cloudy
4:29 PM 75.2 °F 69.8 °F 83% 29.99 in 10.0 mi NE 8.1 mph - N/A   Mostly Cloudy
4:42 PM 75.2 °F 69.8 °F 83% 29.99 in 10.0 mi ENE 8.1 mph - N/A   Mostly Cloudy
4:57 PM 75.0 °F 70.0 °F 84% 29.98 in 10.0 mi NE 5.8 mph - 0.00 in   Mostly Cloudy
5:20 PM 75.2 °F 71.6 °F 89% 29.99 in 6.2 mi NE 5.8 mph - N/A   Mostly Cloudy
5:33 PM 73.4 °F 69.8 °F 88% 30.00 in 10.0 mi NE 8.1 mph - N/A   Scattered Clouds
5:44 PM 73.4 °F 69.8 °F 88% 30.00 in 10.0 mi NE 6.9 mph - N/A   Mostly Cloudy
5:57 PM 73.9 °F 70.0 °F 87% 29.99 in 10.0 mi ENE 3.5 mph - N/A   Mostly Cloudy
6:31 PM 73.4 °F 71.6 °F 94% 30.01 in 10.0 mi ENE 6.9 mph - 0.01 in Rain Light Rain
6:57 PM 73.0 °F 71.1 °F 93% 30.01 in 10.0 mi NE 5.8 mph - 0.01 in   Mostly Cloudy
7:57 PM 73.0 °F 71.1 °F 93% 30.02 in 10.0 mi Calm Calm - 0.01 in Rain Light Rain
8:57 PM 73.9 °F 72.0 °F 93% 30.03 in 10.0 mi ENE 6.9 mph - 0.01 in   Mostly Cloudy
9:06 PM 73.4 °F 71.6 °F 94% 30.04 in 10.0 mi ENE 5.8 mph - N/A   Mostly Cloudy
9:29 PM 73.4 °F 71.6 °F 94% 30.04 in 10.0 mi ENE 5.8 mph - N/A   Overcast
9:45 PM 75.2 °F 71.6 °F 89% 30.05 in 10.0 mi ENE 5.8 mph - 0.00 in Rain Light Rain
9:57 PM 75.0 °F 72.0 °F 90% 30.03 in 10.0 mi ENE 8.1 mph - 0.00 in Rain Light Rain
10:45 PM 73.4 °F 71.6 °F 94% 30.04 in 10.0 mi ENE 8.1 mph - 0.01 in   Overcast
10:57 PM 73.0 °F 70.0 °F 90% 30.03 in 10.0 mi East 10.4 mph 20.7 mph 0.03 in Rain Rain
11:19 PM 73.4 °F 71.6 °F 94% 30.03 in 10.0 mi ENE 9.2 mph - 0.01 in   Overcast
11:42 PM 73.4 °F 71.6 °F 94% 30.05 in 6.2 mi NE 6.9 mph - 0.01 in   Overcast
11:52 PM 73.4 °F 71.6 °F 94% 30.04 in 10.0 mi NE 10.4 mph - 0.01 in   Overcast
11:57 PM 73.9 °F 71.1 °F 91% 30.03 in 10.0 mi NE 12.7 mph 18.4 mph 0.01 in   Overcast